STARLINK-5885 (56352 NORAD) Tracking and Keplerian Element Data

This shows tracking and keplerian element data for the satellite.

Feedback or suggestion? Click here.




ElementValue
Catalog56352
NameSTARLINK-5885
Epoch Orbit181
Epoch Day127.00001157
Epoch Year2023
RAAN126.4749
Inclination97.6638
Eccentricity0.0001446
Argument of Perigee90.9512
Mean Anonmoly240.8698
Mean Motion15.68234673
Decay Rate-0.00868211
L11 56352U 23058AM 23127.00001157 -.00868211 00000+0 -86392-2 0 9995
L22 56352 97.6638 126.4749 0001446 90.9512 240.8698 15.68234673 1818



Live tracking and technical data element details for STARLINK-5885 (NORAD 56352). STARLINK-5885 can be tracked NOW for your location showing map with azimuth and elevation plus other details from your city location.







IsCatalogInMostPopularTable: catalog: 56352, numindb: 4
Update: records affected: 1



GetName: 56352 STARLINK-5885

Hit Count: updated at: Sat, 03 Jun 2023 17:26:41 GMT